Location: Aalen
(48.8330°N, 10.1000°E)
Time: 17:46:49
(UTC+02:00)

UWE-3 - Pass Details

Date: 03 April 2023
Orbit: 576 x 669 km, 97.7° (Epoch: 02 June)

Event Time Altitude Azimuth Distance (km) Brightness Sun altitude
Rises 04:09:04 0° 16° (NNE) 2,977 ? -25.0°
Reaches altitude 10° 04:11:21 10° 19° (NNE) 2,048 ? -24.8°
Maximum altitude 04:15:46 62° 101° (E) 713 ? -24.2°
Enters shadow 04:16:23 55° 141° (SE) 758 ? -24.2°
